STARLINK-34449 (64465 NORAD) Tracking and Keplerian Element Data

This shows tracking and keplerian element data for the satellite.

Feedback or suggestion? Click here.




ElementValue
Catalog64465
NameSTARLINK-34449
Epoch Orbit2850
Epoch Day354.02097321
Epoch Year2025
RAAN98.7084
Inclination53.1611
Eccentricity3.71E-05
Argument of Perigee80.1058
Mean Anonmoly279.9985
Mean Motion15.30213286
Decay Rate0.00023416
L11 64465U 25130AD 25354.02097321 .00023416 00000+0 79990-3 0 9991
L22 64465 53.1611 98.7084 0000371 80.1058 279.9985 15.30213286 28508



Live tracking and technical data element details for STARLINK-34449 (NORAD 64465). STARLINK-34449 can be tracked NOW for your location showing map with azimuth and elevation plus other details from your city location.







IsCatalogInMostPopularTable: catalog: 64465, numindb: 6
Update: records affected: 1



GetName: 64465 STARLINK-34449

Hit Count: updated at: Tue, 10 Feb 2026 02:03:22 GMT